Change the Weather History Date:

Friday, November 29, 2013

  Actual Average Record
Temperature  
Mean Temperature 45 °F 25 °F  
Max Temperature 52 °F 35 °F 62 °F (1929)
Min Temperature 38 °F 16 °F -21 °F (1975)
Degree Days  
Heating Degree Days 20 40  
Month to date heating degree days 1043 999  
Since 1 July heating degree days 2064 2223  
Cooling Degree Days 0 0  
Month to date cooling degree days 0 0  
Year to date cooling degree days 226 162  
Moisture  
Dew Point 25 °F    
Average Humidity 51    
Maximum Humidity 70    
Minimum Humidity 32    
Precipitation  
Precipitation T in 0.01 in 0.12 in (1975)
Month to date precipitation 0.36 0.35  
Year to date precipitation 14.41 10.67  
Snow  
Snow 0.00 in - - ()
Snow Depth 0.00 in    
Sea Level Pressure  
Sea Level Pressure 30.01 in    
Wind  
Wind Speed 18 mph (WSW)    
Max Wind Speed 26 mph    
Max Gust Speed 34 mph    
Visibility 10 miles    
Events Rain    
T = Trace of Precipitation, MM = Missing Value Source: NWS Daily Summary

Daily Weather History Graph

Daily Weather History Graph

Search for Another Location

Airport or City:

Trip Planner

Search our weather history database for the weather conditions in past years. The results will help you decide how hot, cold, wet, or windy it might be!

Date:

Astronomy

Nov. 29, 2013 Rise Set
Actual Time 7:58 AM MST 4:37 PM MST
Civil Twilight 7:22 AM MST 5:13 PM MST
Nautical Twilight 6:43 AM MST 5:52 PM MST
Astronomical Twilight 6:05 AM MST 6:30 PM MST
Moon 3:52 AM MST (11/29) 2:38 PM MST (11/29)
Length of Visible Light 9h 50m
Length of Day
8h 38m
Waning Crescent, 13% of the Moon is Illuminated
Nov 29
Waning Crescent
Dec 2
New
Dec 9
First Quarter
Dec 17
Full
Dec 25
Last Quarter

Hourly Weather History & Observations

Time (MST) Temp. Windchill Dew Point Humidity Pressure Visibility Wind Dir Wind Speed Gust Speed Precip Events Conditions
12:56 AM 39.9 °F 30.5 °F 21.9 °F 49% 29.99 in 10.0 mi West 19.6 mph - N/A   Clear
1:56 AM 39.9 °F 31.1 °F 21.9 °F 49% 29.96 in 10.0 mi West 17.3 mph - N/A   Clear
2:56 AM 41.0 °F 32.2 °F 21.9 °F 47% 29.96 in 10.0 mi West 18.4 mph - N/A   Clear
3:56 AM 39.0 °F 29.6 °F 23.0 °F 53% 29.98 in 10.0 mi WSW 18.4 mph 23.0 mph N/A   Clear
4:56 AM 39.9 °F 32.1 °F 21.9 °F 49% 29.99 in 10.0 mi West 13.8 mph - N/A   Clear
5:56 AM 39.9 °F 30.5 °F 23.0 °F 51% 30.00 in 10.0 mi WSW 19.6 mph - N/A   Clear
6:56 AM 41.0 °F 32.5 °F 21.9 °F 47% 30.00 in 10.0 mi West 17.3 mph - N/A   Clear
7:56 AM 41.0 °F 32.8 °F 21.9 °F 47% 30.00 in 10.0 mi WSW 16.1 mph - N/A   Clear
8:56 AM 41.0 °F 32.2 °F 21.9 °F 47% 30.01 in 10.0 mi WSW 18.4 mph - N/A   Clear
9:56 AM 46.9 °F - 23.0 °F 39% 29.99 in 10.0 mi WSW 19.6 mph - N/A   Clear
10:56 AM 48.9 °F - 23.0 °F 36% 29.99 in 10.0 mi WSW 24.2 mph - N/A   Clear
11:56 AM 51.1 °F - 23.0 °F 33% 29.97 in 10.0 mi WSW 24.2 mph 31.1 mph N/A   Clear
12:56 PM 48.0 °F - 21.9 °F 36% 29.99 in 10.0 mi WSW 23.0 mph 29.9 mph N/A   Clear
1:56 PM 46.0 °F 38.0 °F 21.9 °F 39% 29.99 in 10.0 mi West 21.9 mph 25.3 mph N/A   Clear
2:56 PM 46.0 °F 39.0 °F 23.0 °F 40% 29.99 in 10.0 mi West 17.3 mph - N/A   Overcast
3:56 PM 44.1 °F 35.7 °F 23.0 °F 43% 30.01 in 10.0 mi West 20.7 mph - N/A   Overcast
4:56 PM 43.0 °F 36.8 °F 26.1 °F 51% 30.04 in 10.0 mi West 11.5 mph - N/A   Overcast
5:49 PM 39.9 °F 32.1 °F 30.9 °F 70% 30.03 in 10.0 mi WNW 13.8 mph - 0.00 in Rain Light Rain
5:56 PM 39.0 °F 32.3 °F 30.9 °F 73% 30.08 in 10.0 mi West 10.4 mph - 0.00 in Rain Light Rain
6:56 PM 39.0 °F 32.3 °F 30.0 °F 70% 30.06 in 10.0 mi WSW 10.4 mph - 0.00 in   Overcast
7:56 PM 39.0 °F 30.6 °F 30.0 °F 70% 30.05 in 10.0 mi WSW 15.0 mph - N/A   Overcast
8:56 PM 39.0 °F 29.6 °F 30.0 °F 70% 30.05 in 10.0 mi WSW 18.4 mph - N/A   Overcast
9:56 PM 39.9 °F 30.5 °F 30.0 °F 68% 30.04 in 10.0 mi WSW 19.6 mph 28.8 mph N/A   Overcast
10:56 PM 39.9 °F 30.8 °F 28.9 °F 65% 30.04 in 10.0 mi WSW 18.4 mph - N/A   Overcast
11:56 PM 39.0 °F 29.6 °F 28.9 °F 67% 30.04 in 10.0 mi West 18.4 mph - N/A   Overcast